This is the latest recevied weather packets stored in our database for station/object IN3XSV-15. If no packets are shown the sender has not sent any weather packets the latest 10 day(s).
| Time | Temp. | Humidity | Pressure | Rain* | Wind** | Luminosity | Snow |
|---|---|---|---|---|---|---|---|
| 1777043722 | 12.78° C | 51% | 858.6 hPa | 0 mm | - | - | - |
| 1777043422 | 12.78° C | 50% | 858.6 hPa | 0 mm | - | - | - |
| 1777043122 | 12.78° C | 50% | 858.6 hPa | 0 mm | - | - | - |
| 1777042822 | 13.33° C | 49% | 858.7 hPa | 0 mm | - | - | - |
| 1777042522 | 13.33° C | 49% | 858.6 hPa | 0 mm | - | - | - |
| 1777042222 | 13.89° C | 48% | 858.7 hPa | 0 mm | - | - | - |
| 1777041922 | 13.89° C | 47% | 858.7 hPa | 0 mm | - | - | - |
| 1777041622 | 13.89° C | 44% | 858.7 hPa | 0 mm | - | - | - |
| 1777041322 | 13.33° C | 46% | 858.7 hPa | 0 mm | - | - | - |
| 1777041022 | 13.33° C | 47% | 858.7 hPa | 0 mm | - | - | - |
| 1777040722 | 13.33° C | 46% | 858.8 hPa | 0 mm | - | - | - |
| 1777040422 | 13.33° C | 46% | 858.6 hPa | 0 mm | - | - | - |
| 1777040122 | 13.33° C | 45% | 858.6 hPa | 0 mm | - | - | - |
| 1777039822 | 13.33° C | 47% | 858.5 hPa | 0 mm | - | - | - |
| 1777039522 | 13.33° C | 45% | 858.7 hPa | 0 mm | - | - | - |
| 1777039222 | 13.33° C | 45% | 858.7 hPa | 0 mm | - | - | - |
| 1777038922 | 13.33° C | 44% | 858.6 hPa | 0 mm | - | - | - |
| 1777038622 | 13.33° C | 45% | 858.7 hPa | 0 mm | - | - | - |
| 1777038322 | 13.33° C | 44% | 858.6 hPa | 0 mm | - | - | - |
| 1777038022 | 13.33° C | 44% | 858.7 hPa | 0 mm | - | - | - |
| 1777037722 | 13.89° C | 43% | 858.8 hPa | 0 mm | - | - | - |
| 1777037422 | 13.89° C | 39% | 858.7 hPa | 0 mm | - | - | - |
| 1777037122 | 14.44° C | 37% | 858.9 hPa | 0 mm | - | - | - |
| 1777036822 | 15° C | 33% | 858.6 hPa | 0 mm | - | - | - |
| 1777036522 | 15° C | 28% | 858.7 hPa | 0 mm | - | - | - |
* Rain latest hour (hover to see other rain measurements)
** Current wind speed in m/s (hover to see current wind gust speed)